Time,TemperatureF,DewpointF,PressureIn,WindDirection,WindDirectionDegrees,WindSpeedMPH,WindSpeedGustMPH,Humidity,HourlyPrecipIn,Conditions,Clouds,dailyrainin,SolarRadiationWatts/m^2,SoftwareType,DateUTC
2013-06-15 00:02:00,58.0,57.0,-100.00,West,273,2.0,7.0,95,0.00,,,0.32,0.000000,,2013-06-15 04:02:00,
2013-06-15 00:12:00,58.0,57.0,-100.00,West,273,2.0,7.0,95,0.00,,,0.32,0.000000,,2013-06-15 04:12:00,
2013-06-15 00:22:00,58.0,57.0,-100.00,West,273,2.0,7.0,95,0.00,,,0.32,0.000000,,2013-06-15 04:22:00,
2013-06-15 00:54:00,56.0,55.0,-100.00,WNW,293,2.0,4.0,97,0.00,,,0.30,0.000000,,2013-06-15 04:54:00,
2013-06-15 01:02:00,56.0,55.0,-100.00,WNW,293,2.0,4.0,97,0.00,,,0.30,0.000000,,2013-06-15 05:02:00,
2013-06-15 01:12:00,56.0,55.0,-100.00,WNW,293,2.0,4.0,97,0.00,,,0.30,0.000000,,2013-06-15 05:12:00,
2013-06-15 01:22:00,56.0,55.0,-100.00,WNW,293,2.0,4.0,97,0.00,,,0.30,0.000000,,2013-06-15 05:22:00,
2013-06-15 01:52:00,55.0,54.0,-100.00,NNW,330,2.0,4.0,97,0.00,,,0.29,0.000000,,2013-06-15 05:52:00,
2013-06-15 02:02:00,55.0,54.0,-100.00,NNW,330,2.0,4.0,97,0.00,,,0.29,0.000000,,2013-06-15 06:02:00,
2013-06-15 02:12:00,55.0,54.0,-100.00,NNW,330,2.0,4.0,97,0.00,,,0.29,0.000000,,2013-06-15 06:12:00,
2013-06-15 02:24:00,55.0,54.0,-100.00,NNW,330,2.0,4.0,97,0.00,,,0.29,0.000000,,2013-06-15 06:24:00,
2013-06-15 02:53:00,55.0,54.0,-100.00,NNW,332,2.0,3.0,95,0.00,,,0.24,0.000000,,2013-06-15 06:53:00,
2013-06-15 03:02:00,55.0,54.0,-100.00,NNW,332,2.0,3.0,95,0.00,,,0.24,0.000000,,2013-06-15 07:02:00,
2013-06-15 03:11:00,55.0,54.0,-100.00,NNW,332,2.0,3.0,95,0.00,,,0.24,0.000000,,2013-06-15 07:11:00,
2013-06-15 03:23:00,55.0,54.0,-100.00,NNW,332,2.0,3.0,95,0.00,,,0.24,0.000000,,2013-06-15 07:23:00,
2013-06-15 03:54:00,54.0,53.0,-100.00,NW,318,2.0,6.0,95,0.00,,,0.18,0.000000,,2013-06-15 07:54:00,
2013-06-15 04:02:00,54.0,53.0,-100.00,NW,318,2.0,6.0,95,0.00,,,0.18,0.000000,,2013-06-15 08:02:00,
2013-06-15 04:11:00,54.0,53.0,-100.00,NW,318,2.0,6.0,95,0.00,,,0.18,0.000000,,2013-06-15 08:11:00,
2013-06-15 04:22:00,54.0,53.0,-100.00,NW,318,2.0,6.0,95,0.00,,,0.18,0.000000,,2013-06-15 08:22:00,
2013-06-15 04:53:00,53.0,51.0,-100.00,WNW,282,2.0,5.0,93,0.00,,,0.09,0.000000,,2013-06-15 08:53:00,
2013-06-15 05:02:00,53.0,51.0,-100.00,WNW,282,2.0,5.0,93,0.00,,,0.09,0.000000,,2013-06-15 09:02:00,
2013-06-15 05:12:00,53.0,51.0,-100.00,WNW,282,2.0,5.0,93,0.00,,,0.09,0.000000,,2013-06-15 09:12:00,
2013-06-15 05:22:00,53.0,51.0,-100.00,WNW,282,2.0,5.0,93,0.00,,,0.09,0.000000,,2013-06-15 09:22:00,
2013-06-15 05:52:00,52.0,51.0,-100.00,NW,320,1.0,4.0,95,0.00,,,0.04,4.000000,,2013-06-15 09:52:00,
2013-06-15 06:02:00,52.0,51.0,-100.00,NW,320,1.0,4.0,95,0.00,,,0.04,4.000000,,2013-06-15 10:02:00,
2013-06-15 06:12:00,52.0,51.0,-100.00,NW,320,1.0,4.0,95,0.00,,,0.04,4.000000,,2013-06-15 10:12:00,
2013-06-15 06:23:00,52.0,51.0,-100.00,NW,320,1.0,4.0,95,0.00,,,0.04,4.000000,,2013-06-15 10:23:00,
2013-06-15 06:53:00,54.0,50.0,-100.00,NW,323,2.0,5.0,87,0.00,,,0.00,24.000000,,2013-06-15 10:53:00,
2013-06-15 07:02:00,54.0,50.0,-100.00,NW,323,2.0,5.0,87,0.00,,,0.00,24.000000,,2013-06-15 11:02:00,
2013-06-15 07:12:00,54.0,50.0,-100.00,NW,323,2.0,5.0,87,0.00,,,0.00,24.000000,,2013-06-15 11:12:00,
2013-06-15 07:22:00,54.0,50.0,-100.00,NW,323,2.0,5.0,87,0.00,,,0.00,24.000000,,2013-06-15 11:22:00,
2013-06-15 07:53:00,64.0,52.0,-100.00,NW,318,3.0,8.0,64,0.00,,,0.00,263.000000,,2013-06-15 11:53:00,
2013-06-15 08:02:00,64.0,52.0,-100.00,NW,318,3.0,8.0,64,0.00,,,0.00,263.000000,,2013-06-15 12:02:00,
2013-06-15 08:12:00,64.0,52.0,-100.00,NW,318,3.0,8.0,64,0.00,,,0.00,263.000000,,2013-06-15 12:12:00,
2013-06-15 08:22:00,64.0,52.0,-100.00,NW,318,3.0,8.0,64,0.00,,,0.00,263.000000,,2013-06-15 12:22:00,
2013-06-15 08:53:00,70.0,48.0,-100.00,NW,326,4.0,8.0,45,0.00,,,0.00,449.000000,,2013-06-15 12:53:00,
2013-06-15 09:22:00,70.0,48.0,-100.00,NW,326,4.0,8.0,45,0.00,,,0.00,449.000000,,2013-06-15 13:22:00,
2013-06-15 09:53:00,72.0,44.0,-100.00,NNW,344,4.0,11.0,37,0.00,,,0.00,624.000000,,2013-06-15 13:53:00,
2013-06-15 10:02:00,72.0,44.0,-100.00,NNW,344,4.0,11.0,37,0.00,,,0.00,624.000000,,2013-06-15 14:02:00,
2013-06-15 10:12:00,72.0,44.0,-100.00,NNW,344,4.0,11.0,37,0.00,,,0.00,624.000000,,2013-06-15 14:12:00,
2013-06-15 10:23:00,72.0,44.0,-100.00,NNW,344,4.0,11.0,37,0.00,,,0.00,624.000000,,2013-06-15 14:23:00,
2013-06-15 10:54:00,75.0,45.0,-100.00,North,353,4.0,11.0,34,0.00,,,0.00,772.000000,,2013-06-15 14:54:00,
2013-06-15 11:02:00,75.0,45.0,-100.00,North,353,4.0,11.0,34,0.00,,,0.00,772.000000,,2013-06-15 15:02:00,
2013-06-15 11:12:00,75.0,45.0,-100.00,North,353,4.0,11.0,34,0.00,,,0.00,772.000000,,2013-06-15 15:12:00,
2013-06-15 11:22:00,75.0,45.0,-100.00,North,353,4.0,11.0,34,0.00,,,0.00,772.000000,,2013-06-15 15:22:00,
2013-06-15 11:53:00,76.0,42.0,-100.00,WNW,293,5.0,13.0,30,0.00,,,0.00,883.000000,,2013-06-15 15:53:00,
2013-06-15 12:02:00,76.0,42.0,-100.00,WNW,293,5.0,13.0,30,0.00,,,0.00,883.000000,,2013-06-15 16:02:00,
2013-06-15 12:12:00,76.0,42.0,-100.00,WNW,293,5.0,13.0,30,0.00,,,0.00,883.000000,,2013-06-15 16:12:00,
2013-06-15 12:22:00,76.0,42.0,-100.00,WNW,293,5.0,13.0,30,0.00,,,0.00,883.000000,,2013-06-15 16:22:00,
2013-06-15 12:54:00,78.0,41.0,-100.00,NW,325,4.0,12.0,27,0.00,,,0.00,945.000000,,2013-06-15 16:54:00,
2013-06-15 13:02:00,78.0,41.0,-100.00,NW,325,4.0,12.0,27,0.00,,,0.00,945.000000,,2013-06-15 17:02:00,
2013-06-15 13:12:00,78.0,41.0,-100.00,NW,325,4.0,12.0,27,0.00,,,0.00,945.000000,,2013-06-15 17:12:00,
2013-06-15 13:22:00,78.0,41.0,-100.00,NW,325,4.0,12.0,27,0.00,,,0.00,945.000000,,2013-06-15 17:22:00,
2013-06-15 13:52:00,78.0,41.0,-100.00,WSW,256,5.0,11.0,27,0.00,,,0.00,958.000000,,2013-06-15 17:52:00,
2013-06-15 14:01:00,78.0,41.0,-100.00,WSW,256,5.0,11.0,27,0.00,,,0.00,958.000000,,2013-06-15 18:01:00,
2013-06-15 14:12:00,78.0,41.0,-100.00,WSW,256,5.0,11.0,27,0.00,,,0.00,958.000000,,2013-06-15 18:12:00,
2013-06-15 14:22:00,78.0,41.0,-100.00,WSW,256,5.0,11.0,27,0.00,,,0.00,958.000000,,2013-06-15 18:22:00,
2013-06-15 14:53:00,80.0,42.0,-100.00,West,268,5.0,13.0,26,0.00,,,0.00,927.000000,,2013-06-15 18:53:00,
2013-06-15 15:02:00,80.0,42.0,-100.00,West,268,5.0,13.0,26,0.00,,,0.00,927.000000,,2013-06-15 19:02:00,
2013-06-15 15:53:00,80.0,42.0,-100.00,WNW,285,5.0,16.0,26,0.00,,,0.00,767.000000,,2013-06-15 19:53:00,
2013-06-15 16:02:00,80.0,42.0,-100.00,WNW,285,5.0,16.0,26,0.00,,,0.00,767.000000,,2013-06-15 20:02:00,
2013-06-15 16:12:00,80.0,42.0,-100.00,WNW,285,5.0,16.0,26,0.00,,,0.00,767.000000,,2013-06-15 20:12:00,
2013-06-15 16:22:00,80.0,42.0,-100.00,WNW,285,5.0,16.0,26,0.00,,,0.00,767.000000,,2013-06-15 20:22:00,
2013-06-15 16:53:00,80.0,40.0,-100.00,NNW,332,6.0,13.0,24,0.00,,,0.00,699.000000,,2013-06-15 20:53:00,
2013-06-15 17:02:00,80.0,40.0,-100.00,NNW,332,6.0,13.0,24,0.00,,,0.00,699.000000,,2013-06-15 21:02:00,
2013-06-15 17:12:00,80.0,40.0,-100.00,NNW,332,6.0,13.0,24,0.00,,,0.00,699.000000,,2013-06-15 21:12:00,
2013-06-15 17:22:00,80.0,40.0,-100.00,NNW,332,6.0,13.0,24,0.00,,,0.00,699.000000,,2013-06-15 21:22:00,
2013-06-15 17:53:00,80.0,42.0,-100.00,WNW,296,5.0,16.0,26,0.00,,,0.00,526.000000,,2013-06-15 21:53:00,
2013-06-15 18:01:00,80.0,42.0,-100.00,WNW,296,5.0,16.0,26,0.00,,,0.00,526.000000,,2013-06-15 22:01:00,
2013-06-15 18:11:00,80.0,42.0,-100.00,WNW,296,5.0,16.0,26,0.00,,,0.00,526.000000,,2013-06-15 22:11:00,
2013-06-15 18:22:00,80.0,42.0,-100.00,WNW,296,5.0,16.0,26,0.00,,,0.00,526.000000,,2013-06-15 22:22:00,
2013-06-15 18:53:00,78.0,40.0,-100.00,NW,317,5.0,13.0,26,0.00,,,0.00,266.000000,,2013-06-15 22:53:00,
2013-06-15 19:02:00,78.0,40.0,-100.00,NW,317,5.0,13.0,26,0.00,,,0.00,266.000000,,2013-06-15 23:02:00,
2013-06-15 19:12:00,78.0,40.0,-100.00,NW,317,5.0,13.0,26,0.00,,,0.00,266.000000,,2013-06-15 23:12:00,
2013-06-15 19:22:00,78.0,40.0,-100.00,NW,317,5.0,13.0,26,0.00,,,0.00,266.000000,,2013-06-15 23:22:00,
2013-06-15 19:53:00,72.0,40.0,-100.00,NW,316,2.0,12.0,31,0.00,,,0.00,125.000000,,2013-06-15 23:53:00,
2013-06-15 20:02:00,72.0,40.0,-100.00,NW,316,2.0,12.0,31,0.00,,,0.00,125.000000,,2013-06-16 00:02:00,
2013-06-15 20:12:00,72.0,40.0,-100.00,NW,316,2.0,12.0,31,0.00,,,0.00,125.000000,,2013-06-16 00:12:00,
2013-06-15 20:22:00,72.0,40.0,-100.00,NW,316,2.0,12.0,31,0.00,,,0.00,125.000000,,2013-06-16 00:22:00,
2013-06-15 20:52:00,65.0,47.0,-100.00,WNW,285,2.0,2.0,52,0.00,,,0.00,14.000000,,2013-06-16 00:52:00,
2013-06-15 21:02:00,65.0,47.0,-100.00,WNW,285,2.0,2.0,52,0.00,,,0.00,14.000000,,2013-06-16 01:02:00,
2013-06-15 21:12:00,65.0,47.0,-100.00,WNW,285,2.0,2.0,52,0.00,,,0.00,14.000000,,2013-06-16 01:12:00,
2013-06-15 21:22:00,65.0,47.0,-100.00,WNW,285,2.0,2.0,52,0.00,,,0.00,14.000000,,2013-06-16 01:22:00,
2013-06-15 21:53:00,59.0,50.0,-100.00,West,281,0.0,3.0,71,0.00,,,0.00,1.000000,,2013-06-16 01:53:00,
2013-06-15 22:02:00,59.0,50.0,-100.00,West,281,0.0,3.0,71,0.00,,,0.00,1.000000,,2013-06-16 02:02:00,
2013-06-15 22:12:00,59.0,50.0,-100.00,West,281,0.0,3.0,71,0.00,,,0.00,1.000000,,2013-06-16 02:12:00,
2013-06-15 22:22:00,59.0,50.0,-100.00,West,281,0.0,3.0,71,0.00,,,0.00,1.000000,,2013-06-16 02:22:00,
2013-06-15 22:53:00,56.0,50.0,-100.00,WNW,297,1.0,3.0,81,0.00,,,0.00,0.000000,,2013-06-16 02:53:00,
2013-06-15 23:02:00,56.0,50.0,-100.00,WNW,297,1.0,3.0,81,0.00,,,0.00,0.000000,,2013-06-16 03:02:00,
2013-06-15 23:12:00,56.0,50.0,-100.00,WNW,297,1.0,3.0,81,0.00,,,0.00,0.000000,,2013-06-16 03:12:00,
2013-06-15 23:22:00,56.0,50.0,-100.00,WNW,297,1.0,3.0,81,0.00,,,0.00,0.000000,,2013-06-16 03:22:00,
2013-06-15 23:53:00,55.0,51.0,-100.00,NW,304,2.0,3.0,85,0.00,,,0.00,0.000000,,2013-06-16 03:53:00,